, MO

(GMT )
Kansas City

Weather History for KMKC - October, 2013

Change the Weather History Date:

Friday, October 18, 2013

  Actual Average Record
Temperature  
Mean Temperature 42 °F -  
Max Temperature 48 °F 65 °F 82 °F (2005)
Min Temperature 37 °F 46 °F 33 °F (1999)
Degree Days  
Heating Degree Days 22    
Moisture  
Dew Point 36 °F    
Average Humidity 82    
Maximum Humidity 89    
Minimum Humidity 63    
Precipitation  
Precipitation 0.22 in - - ()
Sea Level Pressure  
Sea Level Pressure 30.11 in    
Wind  
Wind Speed 5 mph (WNW)    
Max Wind Speed 12 mph    
Max Gust Speed 17 mph    
Visibility 9 miles    
Events Rain    
Averages and records for this station are not official NWS values.
T = Trace of Precipitation, MM = Missing Value Source: NWS Daily Summary

Daily Weather History Graph

Daily Weather History Graph

Search for Another Location

Airport or City:

Trip Planner

Search our weather history database for the weather conditions in past years. The results will help you decide how hot, cold, wet, or windy it might be!

Date:

Astronomy

Oct. 18, 2013 Rise Set
Actual Time 7:31 AM CDT 6:34 PM CDT
Civil Twilight 7:04 AM CDT 7:01 PM CDT
Nautical Twilight 6:33 AM CDT 7:33 PM CDT
Astronomical Twilight 6:02 AM CDT 8:03 PM CDT
Moon 6:25 PM CDT (10/18) 7:07 AM CDT (10/18)
Length of Visible Light 11h 57m
Length of Day
11h 03m
Full, 100% of the Moon is Illuminated
Oct 18
Full
Oct 18
Full
Oct 26
Last Quarter
Nov 3
New
Nov 9
First Quarter

Hourly Weather History & Observations

Time (CDT) Temp. Windchill Dew Point Humidity Pressure Visibility Wind Dir Wind Speed Gust Speed Precip Events Conditions
12:54 AM 48.0 °F - 39.0 °F 71% 30.03 in 10.0 mi NW 5.8 mph - N/A   Clear
1:54 AM 46.0 °F 43.1 °F 37.9 °F 73% 30.04 in 10.0 mi NW 5.8 mph - N/A   Clear
2:54 AM 45.0 °F 43.5 °F 37.9 °F 76% 30.05 in 10.0 mi West 3.5 mph - N/A   Partly Cloudy
3:54 AM 45.0 °F 42.6 °F 37.0 °F 74% 30.05 in 10.0 mi NNW 4.6 mph - N/A   Clear
4:54 AM 44.1 °F 40.8 °F 36.0 °F 73% 30.05 in 10.0 mi North 5.8 mph - N/A   Clear
5:54 AM 43.0 °F 39.5 °F 36.0 °F 76% 30.07 in 10.0 mi NW 5.8 mph - N/A   Clear
6:54 AM 42.1 °F 39.2 °F 36.0 °F 79% 30.09 in 10.0 mi NNW 4.6 mph - N/A   Clear
7:54 AM 42.1 °F - 36.0 °F 79% 30.11 in 10.0 mi Calm Calm - N/A   Clear
8:54 AM 44.1 °F 40.8 °F 36.0 °F 73% 30.14 in 10.0 mi NNW 5.8 mph - N/A   Partly Cloudy
9:54 AM 46.0 °F 43.1 °F 36.0 °F 68% 30.14 in 10.0 mi NNW 5.8 mph - N/A   Mostly Cloudy
10:54 AM 46.0 °F 40.6 °F 34.0 °F 63% 30.14 in 9.0 mi NW 11.5 mph 17.3 mph 0.00 in Rain Light Rain
11:54 AM 44.1 °F - 34.0 °F 68% 30.15 in 10.0 mi Calm Calm - 0.01 in   Mostly Cloudy
12:54 PM 43.0 °F 38.8 °F 35.1 °F 74% 30.14 in 10.0 mi NNW 6.9 mph - 0.00 in Rain Light Rain
1:44 PM 39.2 °F 35.0 °F 35.6 °F 87% 30.13 in 4.0 mi WNW 5.8 mph - 0.04 in Rain Light Rain
1:54 PM 39.9 °F 36.7 °F 36.0 °F 86% 30.14 in 4.0 mi West 4.6 mph - 0.05 in Rain Light Rain
2:50 PM 39.2 °F 35.9 °F 35.6 °F 87% 30.13 in 8.0 mi WNW 4.6 mph - 0.05 in Rain Light Rain
2:54 PM 39.9 °F 36.7 °F 36.0 °F 86% 30.14 in 6.0 mi West 4.6 mph - 0.06 in Rain Light Rain
3:12 PM 39.2 °F 35.9 °F 35.6 °F 87% 30.13 in 4.0 mi West 4.6 mph - 0.02 in Rain Light Rain
3:54 PM 39.0 °F 34.0 °F 35.1 °F 86% 30.14 in 8.0 mi WNW 6.9 mph - 0.05 in Rain Light Rain
4:05 PM 39.2 °F 33.6 °F 35.6 °F 87% 30.13 in 7.0 mi WNW 8.1 mph - 0.00 in Rain Light Rain
4:11 PM 39.2 °F 34.2 °F 35.6 °F 87% 30.12 in 6.0 mi West 6.9 mph - 0.01 in Rain Light Rain
4:27 PM 39.2 °F 35.0 °F 35.6 °F 87% 30.13 in 10.0 mi WNW 5.8 mph - 0.01 in Rain Light Rain
4:54 PM 39.0 °F 34.8 °F 35.1 °F 86% 30.13 in 10.0 mi West 5.8 mph - 0.02 in Rain Light Rain
5:29 PM 39.2 °F 35.0 °F 35.6 °F 87% 30.12 in 9.0 mi West 5.8 mph - 0.01 in Rain Light Rain
5:54 PM 39.9 °F 37.8 °F 36.0 °F 86% 30.12 in 8.0 mi West 3.5 mph - 0.01 in Rain Light Rain
6:09 PM 39.2 °F 37.0 °F 35.6 °F 87% 30.11 in 9.0 mi WSW 3.5 mph - 0.01 in Rain Light Rain
6:21 PM 39.2 °F 37.0 °F 35.6 °F 87% 30.11 in 10.0 mi West 3.5 mph - 0.01 in Rain Light Rain
6:54 PM 39.9 °F 35.8 °F 36.0 °F 86% 30.13 in 10.0 mi SW 5.8 mph - 0.01 in   Overcast
7:10 PM 39.2 °F 35.0 °F 35.6 °F 87% 30.11 in 10.0 mi SW 5.8 mph - 0.00 in Rain Light Rain
7:35 PM 39.2 °F 35.0 °F 35.6 °F 87% 30.11 in 10.0 mi SW 5.8 mph - 0.01 in   Overcast
7:54 PM 39.0 °F 35.7 °F 36.0 °F 89% 30.12 in 10.0 mi SW 4.6 mph - 0.01 in   Overcast
8:31 PM 39.2 °F 35.9 °F 35.6 °F 87% 30.11 in 10.0 mi WNW 4.6 mph - N/A   Overcast
8:54 PM 39.0 °F 34.8 °F 36.0 °F 89% 30.13 in 10.0 mi West 5.8 mph - N/A   Overcast
9:54 PM 39.0 °F 36.8 °F 35.1 °F 86% 30.12 in 10.0 mi Variable 3.5 mph - N/A   Overcast
10:54 PM 37.9 °F 32.1 °F 35.1 °F 89% 30.12 in 8.0 mi WSW 8.1 mph - N/A   Overcast
11:54 PM 37.9 °F 32.1 °F 35.1 °F 89% 30.12 in 10.0 mi West 8.1 mph - N/A   Overcast